User: anonymous   Login
Location: Unspecified
(0.0000°N, 0.0000°E)
Time: 11:05:13
(UTC+00:00)
Language:

PAYLOAD C - Orbit

View from above orbital plane
View from above orbital plane
View from above satellite
View from above satellite

Ground track
Ground track

The orbit data is extracted from the following two-line orbital elements,

1 27057U 01058C   17269.06312190 -.00000011  00000-0 -12071-3 0  9990
2 27057  82.5403  93.7626 0001893  76.6084 283.5229 12.61543620725106
Epoch (UTC): 26 September 2017 01:30:53
Eccentricity: 0.0001893
inclination: 82.5403°
perigee height: 1415 km
apogee height: 1418 km
right ascension of ascending node: 93.7626°
argument of perigee: 76.6084°
revolutions per day: 12.61543620
mean anomaly at epoch: 283.5229°
orbit number at epoch: 72510

The dashed part of the orbit path shows where the satellite is in the earth's shadow,  

DLR